Regional Weather Roundup
Issued by NWS

Home | Current Version | Previous Version | Text Only | Print | Product List | Glossary On
Versions: 1 2 3 4 5 6 7 8 9 10 11 12 13 14 15 16 17 18 19 20 21 22 23 24 25 26 27 28 29 30 31 32 33 34 35 36 37 38 39 40 41 42 43 44 45 46 47 48 49 50
000
ASHW40 PHFO 060712
RWRHI

WEATHER ROUNDUP FOR HAWAII
NATIONAL WEATHER SERVICE HONOLULU HI
900 PM HST MON DEC 05 2016

THIS IS AN AUTOMATED REPORT THAT HAS NOT BEEN QUALITY CONTROLLED.

NOTE..."FAIR" INDICATES FEW OR NO CLOUDS BELOW 12,000 FEET WITH NO
SIGNIFICANT WEATHER AND/OR OBSTRUCTIONS TO VISIBILITY.

* - THESE SITES REPORT LIMITED FIELDS

HIZ001>004-060800-
KAUAI-NIIHAU-

CITY           SKY/WX    TMP DP  RH WIND       PRES   REMARKS
LIHUE APT      CLOUDY    73  67  81 E6        29.98R
PORT ALLEN*      N/A     72 N/A N/A E10         N/A
POIPU*           N/A     72 N/A N/A NW1         N/A
PRINCEVILLE*     N/A     68 N/A N/A S3          N/A
KOKOLE POINT*  NOT AVBL
MOLOAA DAIRY*    N/A     70  66  88 W1          N/A
WAIMEA HTS*    NOT AVBL
PUU OPAE*      NOT AVBL
PUU LUA*       NOT AVBL
MAKAHA RIDGE*  NOT AVBL
$$

HIZ005>011-060800-
OAHU-

CITY           SKY/WX    TMP DP  RH WIND       PRES   REMARKS
HONOLULU       PTCLDY    71  66  84 CALM      29.95S
KALAELOA       CLEAR     73  67  81 CALM      29.96S
KANEOHE MCB    NOT AVBL
WHEELER FIELD  NOT AVBL
BELLOWS*       NOT AVBL
KAHUKU*        NOT AVBL
WHEELER*       NOT AVBL
WAIANAE HARBOR NOT AVBL
DILLINGHAM*      N/A     84  81  89 MISG        N/A  HX  98
KAHUKU TRN*      N/A     70  66  88 N3          N/A
KAWAILOA*        N/A     66  64  94 NE3         N/A
KII*             N/A     72  68  88 SW3         N/A
MAKUA RANGE*     N/A     72  63  73 NW7         N/A
OAHU FOREST NW NOT AVBL
SCHOFIELD BRK*   N/A     64  63  94 MISG        N/A
SCHOFIELD S*   NOT AVBL
WAIANAE VLY*   NOT AVBL
KUAOKALA*      NOT AVBL
HONOULIUULI*   NOT AVBL
MOKUOLOE IS*   NOT AVBL
PALEHUA*       NOT AVBL
WAIAWA PHB*    NOT AVBL
$$

HIZ012>013-060800-
MOLOKAI-

CITY           SKY/WX    TMP DP  RH WIND       PRES   REMARKS
MOLOKAI AIRPT    N/A     72  68  87 N6        29.97R
KALAUPAPA      NOT AVBL
MAKAPULAPAI*   NOT AVBL
MOLOKAI 1*     NOT AVBL
PUU ALII*      NOT AVBL
$$

HIZ016-060800-
KAHOOLAWE-

CITY           SKY/WX    TMP DP  RH WIND       PRES   REMARKS
KAHOOLAWE*     NOT AVBL
HAKIOAWA*      NOT AVBL
HONOKANAIA*      N/A     73  68  83 NE3       29.88R
KANELOA*         N/A     72  68  88 N12         N/A
KEALIALALO*    NOT AVBL
LUA MAKIKA*    NOT AVBL
$$

HIZ014>015-060800-
LANAI-

CITY           SKY/WX    TMP DP  RH WIND       PRES   REMARKS
LANAI CITY     FAIR      69  66  90 SW3       30.01R
LANAI 1*       NOT AVBL
$$

HIZ017>028-060800-
MAUI-

CITY           SKY/WX    TMP DP  RH WIND       PRES   REMARKS
KAHULUI        CLEAR     72  66  81 E7        29.95R
KAPALUA-W MAUI NOT AVBL
HANA AIRPORT   CLOUDY    68  66  94 S2        29.98S
HANA*            N/A     68 N/A N/A SW2         N/A
HALEAKALA SUMM   N/A     45  45 100 S12G25      N/A
MAALAEA BAY*   NOT AVBL
HALEAKALA*     NOT AVBL
KAUPO GAP*     NOT AVBL
KULA 1*          N/A     55  53  91 SE9G16      N/A
$$

HIZ023>026-060800-
BIG ISLAND OF HAWAII COAST AND LOWER SLOPES-

CITY           SKY/WX    TMP DP  RH WIND       PRES   REMARKS
KAILUA KONA    CLOUDY    76  70  82 SE9       29.92R
HILO           CLOUDY    71  69  93 CALM      29.95R
HONOKAA*         N/A     66 N/A N/A VRB1        N/A
KAWAIHAE MWT*    N/A     77 N/A N/A E1          N/A
KAWAIHAE*      NOT AVBL
SOUTH POINT*     N/A     70 N/A N/A N9          N/A
UPOLU AIRPORT* NOT AVBL
KAMUELA*       PTSUNNY   63  59  88 E3        30.05S
HAKALAU*         N/A     54  53  98 NW1         N/A
KALOKO-HONOKO* NOT AVBL
PALI 2*          N/A     64  64 100 W2          N/A
KEALAKOMO*       N/A     73  68  83 NW2         N/A
KAUPULEHU*     NOT AVBL
KAPAPALA*      NOT AVBL
LOWER KAHUKU*  NOT AVBL
PUHE CS*       NOT AVBL
PUHO CS*       NOT AVBL
PTA KEAMUKU*     N/A     63  59  88 CALM        N/A
WAIKOLOA*      NOT AVBL
$$

HIZ027>028-060800-
BIG ISLAND OF HAWAII INTERIOR AND SUMMMITS-

CITY           SKY/WX    TMP DP  RH WIND       PRES   REMARKS
BRADSHAW FIELD LGT RAIN  59  51  76 CALM      30.29R
MK VISITOR CEN   N/A     50  45  81 N12         N/A
MAUNA KEA*       N/A     34  34 100 SW13        N/A  WCI  25
MAUNA LOA*       N/A     45  39  81 MISG        N/A
MAUNA LOA 1*   NOT AVBL
PTA KIPUKA*      N/A     70  66  88 S1G8        N/A
PTA RANGE 17*    N/A     61  52  72 CALM        N/A
PTA WEST*        N/A     63  59  88 NW1G9       N/A
NENE CABIN*    NOT AVBL
AHUMOA*        NOT AVBL
PTA PORTABLE*  NOT AVBL
PUU MALI*        N/A     55  55 100 VRB3        N/A
$$

HIC003-060800-
NORTHWEST ISLANDS-

CITY           SKY/WX    TMP DP  RH WIND       PRES   REMARKS
MIDWAY ISLAND  CLOUDY    66  61  82 SE14      29.99F
MIDWAY NOS*    NOT AVBL
FRENCH FRIGATE NOT AVBL
$$

PHZ110>124-180-060800-
BUOY REPORTS

STATION/POSITION TIME  TEMP    WIND        PRES    WAVE   SWELL
                       AIR SEA DIR/SP/G            HT/PER HT/DIR
                 (UTC) (F)     (DEG/KT/KT) (MB)    (FT/S) (FT/D)
BUOY 51001       0650   74 77  350/  4/  8 1014.0R   9/12  10/ 20
BUOY 51101       0650   73 78  310/  2/  6 1014.6R   9/10  10/ 50
BUOY 51100       NOT AVBL
BUOY 51002       0650   77 78   30/ 10/ 12 1013.3R   7/10   7/ 40
BUOY 51003       0650   77 80   CALM  /  2 1013.8R   7/11   7/330
BUOY 51004       0650   76 79  120/ 10/ 14 1013.8R   8/ 9   8/ 80
BARBERS PT BUOY  NOT AVBL
WAIMEA BAY BUOY  NOT AVBL
KAILUA BAY BUOY  0634      78                N/A     6/13   5/ 10
LANAI BUOY       0645      79                N/A     3/14   2/200
BARBERS PT 2     0639      79                N/A     4/14   2/190
PAUWELA MAUI     0639      78                N/A     8/13   5/350
HILO             0642      77                N/A     7/10   3
KANEOHE BAY BUOY 0636      78                N/A     7/11   5
HANALEI KAUAI    0652      78                N/A     9/10   5/340
KAHULUI HARBOR   0648          320/  5/  5   N/A
HONOLULU HARBOR  0648   74 78   80/  3/  4 1015.0R
KILO NALU        NOT AVBL
HILO HARBOR      0648   72 76   CALM  /  1 1013.7R
MOKUOLOE         0636          250/  2/  3   N/A
NAWILIWILI       0648   74 78   50/  3/  4 1015.0R
WHOTS BUOY       NOT AVBL
BUOY 51028       NOT AVBL
$$

......................KEY........................................
  SKY/WX - SKY CONDITIONS/PRESENT WEATHER
  TMP    - TEMPERATURE IN FAHRENHEIT
  DWPT   - DEWPOINT IN FAHRENHEIT
  RH     - RELATIVE HUMIDITY IN PERCENT
  WIND   - DIRECTION AND SPEED /MPH FOR ISLANDS...KTS FOR BUOYS/
  PRES   - MEAN SEA LEVEL PRESSURE IN INCHES OF HG
  VSB    - VISIBILITY IN MILES
  HX     - HEAT INDEX
  WCI    - WIND CHILL INDEX
  VRB    - VARIABLE WIND DIRECTION
  N/A    - NOT AVAILABLE



USA.gov is the U.S. government's official web portal to all federal, state and local government web resources and services.